sat.trackr.live / text

‹ back to catalog

STARLINK-36332

NORAD 67862 · 2026-034N

PAYLOAD ACTIVE UNKNOWN

§ Identity

Operator
Country
US
Launch date
2026-02-20
Launch site
AFETR
Launch vehicle
Mass (kg)
RCS (m²)

Purposes: comms

External: N2YO · Heavens-Above · Gunter

§ Orbital elements

Epoch: 2026-05-24T22:02:59.417664Z

Period
94.11 min
Inclination
53.1575°
Eccentricity
0.0001177
Mean motion
15.30204520 rev/d
Perigee alt
474.4 km
Apogee alt
476.0 km
Semi-major
6,853.3 km
B*
4.4022e-4
RAAN
210.3852°
Arg perigee
66.3302°
Mean anomaly
293.7822°
Rev number
1,570

§ Raw data

STARLINK-363321 67862U 26034N   26144.91874326  .00012703  00000+0  44022-3 0  99982 67862  53.1575 210.3852 0001177  66.3302 293.7822 15.30204520 15702

JSON: /api/v1/satellites/67862 · /tle

For live sub-satellite position, see the globe view (requires WebGL).

§ Visibility from observer

Set your observer location to see the next 7 days of passes ≥ 10°. The values pass through the URL so the page stays shareable.

No JS? Fill the form by hand. The geolocation button needs JavaScript.